This is the latest recevied weather packets stored in our database for station/object K2BIG. If no packets are shown the sender has not sent any weather packets the latest 10 day(s).
| Time | Temp. | Humidity | Pressure | Rain* | Wind** | Luminosity | Snow |
|---|---|---|---|---|---|---|---|
| 1777741517 | 16.11° C | 53% | 1011.5 hPa | 0 mm | - | - | - |
| 1777741217 | 15.56° C | 54% | 1011.5 hPa | 0 mm | - | - | - |
| 1777740917 | 15.56° C | 46% | 1011.4 hPa | 0 mm | - | - | - |
| 1777740617 | 15.56° C | 50% | 1011.5 hPa | 0 mm | - | - | - |
| 1777740317 | 15° C | 53% | 1011.5 hPa | 0 mm | - | - | - |
| 1777740017 | 14.44° C | 57% | 1011.5 hPa | 0 mm | - | - | - |
| 1777739717 | 13.89° C | 49% | 1011.6 hPa | 0 mm | - | - | - |
| 1777739417 | 13.33° C | 56% | 1011.7 hPa | 0 mm | - | - | - |
| 1777739117 | 13.89° C | 57% | 1011.8 hPa | 0 mm | - | - | - |
| 1777738817 | 14.44° C | 64% | 1011.8 hPa | 0 mm | - | - | - |
| 1777738517 | 14.44° C | 60% | 1011.9 hPa | 0 mm | - | - | - |
| 1777738217 | 15° C | 56% | 1011.8 hPa | 0 mm | - | - | - |
| 1777737917 | 15° C | 60% | 1011.9 hPa | 0 mm | - | - | - |
| 1777737617 | 14.44° C | 56% | 1012 hPa | 0 mm | - | - | - |
| 1777737357 | 13.89° C | 58% | 1011.9 hPa | 0 mm | - | - | - |
| 1777737017 | 13.89° C | 59% | 1012 hPa | 0 mm | - | - | - |
| 1777736717 | 13.89° C | 61% | 1012.1 hPa | 0 mm | - | - | - |
| 1777736417 | 13.89° C | 63% | 1012 hPa | 0 mm | - | - | - |
| 1777736117 | 14.44° C | 57% | 1012 hPa | 0 mm | - | - | - |
| 1777735817 | 15° C | 64% | 1012.1 hPa | 0 mm | - | - | - |
| 1777735517 | 14.44° C | 65% | 1012.1 hPa | 0 mm | - | - | - |
| 1777735217 | 13.89° C | 68% | 1012.1 hPa | 0 mm | - | - | - |
| 1777734917 | 13.33° C | 66% | 1012.1 hPa | 0 mm | - | - | - |
| 1777734617 | 12.78° C | 70% | 1012 hPa | 0 mm | - | - | - |
| 1777734317 | 12.78° C | 70% | 1012.2 hPa | 0 mm | - | - | - |
* Rain latest hour (hover to see other rain measurements)
** Current wind speed in m/s (hover to see current wind gust speed)